{"data":{"norad_id":55367,"epoch":"2026-09-20T02:28:51.697632Z","epoch_age_seconds":130845,"freshness":"FRESH","line1":"1 55367U 23013AN  26263.10337613  .00000007  00000+0  97976-5 0  9997","line2":"2 55367  42.9996 270.9775 0001392 262.6665  97.4028 15.27576034201577","mean_motion":15.27576034,"eccentricity":0.0001392,"inclination_deg":42.9996,"raan_deg":270.9775,"arg_perigee_deg":262.6665,"mean_anomaly_deg":97.4028,"bstar":9.7976e-6,"rev_number":20157,"period_min":94.266993455594,"perigee_km":482.10589293845,"apogee_km":484.01605045377,"semimajor_km":6861.1979716961,"source":"CELESTRAK","updated_at":"2026-09-21T09:00:33.208401Z"}}